Regional Weather Roundup
Issued by NWS

Home | Current Version | Previous Version | Graphics & Text | Print | Product List | Glossary On
Versions: 1 2 3 4 5 6 7 8 9 10 11 12 13 14 15 16 17 18 19 20 21 22 23 24 25 26 27 28 29 30 31 32 33 34 35 36 37 38 39 40 41 42 43 44 45 46 47 48 49 50
000
ASUS43 KOAX 240302
RWRNE

WEATHER ROUNDUP FOR NEBRASKA
NATIONAL WEATHER SERVICE OMAHA NE
1000 PM CDT WED AUG 23 2017

NOTES: SATELLITE DATA IS BEING USED TO AUGMENT CLOUD COVER ABOVE
       12000 FEET.
       "FAIR" INDICATES FEW OR NO CLOUDS BELOW 12,000 FEET WITH NO
       SIGNIFICANT WEATHER AND/OR OBSTRUCTIONS TO VISIBILITY.


NEZ001>004-019>022-054>056-240400-
NEBRASKA PANHANDLE

CITY           SKY/WX    TMP DP  RH WIND       PRES   REMARKS
SCOTTSBLUFF    MOCLDY    72  50  45 NE10      30.00F
ALLIANCE       PTCLDY    71  51  49 SW5       30.00R
CHADRON        CLOUDY    78  51  38 S7        29.98R
GORDON         FAIR      73  58  58 CALM      29.98R
KIMBALL        CLOUDY    70  45  41 SE3       30.08S
SIDNEY         MOCLDY    71  53  52 NE9       30.06S
$$

NEZ057>060-069>072-079>082-240400-
SOUTHWEST NEBRASKA

CITY           SKY/WX    TMP DP  RH WIND       PRES   REMARKS
NORTH PLATTE   CLEAR     64  56  75 E8        30.01R
IMPERIAL       CLEAR     73  58  59 SE13      30.01R
LEXINGTON      CLEAR     69  55  61 SE7       30.03R
MCCOOK         CLEAR     71  50  47 S8        30.02R
OGALLALA       CLEAR     72  62  70 E5        30.00S
$$

NEZ005>010-023>029-035>040-094-240400-
NORTH CENTRAL NEBRASKA

CITY           SKY/WX    TMP DP  RH WIND       PRES   REMARKS
VALENTINE      CLEAR     79  59  50 S16       29.93R
AINSWORTH      CLEAR     73  56  56 S14       29.96S
BROKEN BOW     CLEAR     70  55  59 S8        30.01S
O`NEILL        CLEAR     68  59  72 S10       29.97S
ORD            CLOUDY    69  56  62 S5        29.99S
THEDFORD       CLOUDY    73  57  57 S10       30.00R
$$

NEZ041-046>049-061>064-073>077-083>087-240400-
SOUTH CENTRAL NEBRASKA

CITY           SKY/WX    TMP DP  RH WIND       PRES   REMARKS
GRAND ISLAND   CLEAR     68  56  65 S10       30.03R
AURORA         CLEAR     68  57  68 S9        30.04R
HASTINGS       CLEAR     69  54  58 S8        30.05R
HEBRON         CLEAR     67  55  63 S5        30.04S
HOLDREGE       CLEAR     64  53  68 SE7       30.04R
KEARNEY        CLEAR     64  56  75 SE9       30.04R
$$

NEZ011>018-030>034-042>045-240400-
NORTHEAST NEBRASKA

CITY           SKY/WX    TMP DP  RH WIND       PRES   REMARKS
NORFOLK        CLEAR     68  60  75 S9        30.00S
ALBION         CLEAR     64  61  89 S5        30.01S
BLAIR          CLEAR     67  58  73 SE6       30.03S
COLUMBUS       CLEAR     65  60  84 S7        30.02S
FREMONT        PTCLDY    69  58  69 SE8       30.03R
TEKAMAH        CLEAR     63  60  90 S5        30.01S
WAYNE          PTCLDY    64  61  91 S6        30.00S
$$

NEZ050>053-065>068-078-088>093-240400-
SOUTHEAST NEBRASKA

CITY           SKY/WX    TMP DP  RH WIND       PRES   REMARKS
LINCOLN        CLEAR     73  58  59 SE9       30.04R
OMAHA EPPLEY   PTCLDY    71  57  61 SE9       30.03S
BEATRICE       CLEAR     69  57  65 SE5       30.04R
FALLS CITY     CLEAR     66  59  78 SE3       30.03S
NEBRASKA CITY  CLEAR     65  62  91 S5        30.04S
PLATTSMOUTH    CLEAR     65  58  79 SE6       30.04S
$$

NEZ044-045-051>053-067-240400-
OMAHA AREA

CITY           SKY/WX    TMP DP  RH WIND       PRES   REMARKS
OMAHA EPPLEY   PTCLDY    71  57  61 SE9       30.03S
BLAIR          CLEAR     67  58  73 SE6       30.03S
FREMONT        PTCLDY    69  58  69 SE8       30.03R
MILLARD        CLEAR     69  60  72 SE3       30.03S
OFFUTT AFB     CLEAR     65  59  80 SE5       30.03R
PLATTSMOUTH    CLEAR     65  58  79 SE6       30.04S
WAHOO          FAIR      63  60  91 S6        30.02S
$$



USA.gov is the U.S. government's official web portal to all federal, state and local government web resources and services.